Location: ?????
(55.8833°N, 37.6500°E)
Time: 15:22:20
(UTC+00:00)

Daily predictions for brighter satellites

Satellite Brightness Start Highest point End
(mag) Time Altitude Azimuth Time Altitude Azimuth Time Altitude Azimuth
NOSS 3-2 (C) 4.2 15:23:44 10° WNW 15:30:23 52° NNE 15:38:02 10° E
COSMO-SKYMED 1 2.7 15:30:01 10° NNE 15:34:19 53° E 15:38:34 10° S
STARLINK-34 3.7 15:32:02 10° WSW 15:35:30 50° S 15:38:57 10° E
STARLINK-1017 3.8 15:33:13 10° WSW 15:36:30 43° SSE 15:39:46 10° E
YAOGAN 6 3.6 15:33:40 10° S 15:37:05 49° W 15:40:30 10° NNW
NOSS 2-3 (D) 4.4 15:33:07 10° SSW 15:37:13 38° SE 15:42:07 10° ENE
Cosmos 2369 Rocket 2.3 15:32:45 10° SSW 15:38:20 63° ESE 15:44:00 10° NE
Cosmos 2297 4.3 15:33:49 10° SW 15:39:23 59° NW 15:44:59 10° NNE
STARLINK-81 4.0 15:35:40 10° WSW 15:39:35 51° SSE 15:43:30 10° E
USA 229 DEB 3.7 15:33:03 10° SW 15:39:39 75° SE 15:46:41 10° NE
CENTAUR R/B 3.4 15:32:40 10° WNW 15:39:46 53° NNE 15:47:55 10° E
USA 229 3.7 15:33:10 10° SW 15:39:46 75° SE 15:46:46 10° NE
Cosmos 1898 Rocket 3.5 15:36:01 10° NNW 15:41:12 66° ENE 15:46:22 10° SE
STARLINK-54 4.0 15:37:28 10° WSW 15:41:24 52° S 15:45:20 10° E
HJ-1C 4.1 15:38:46 10° SE 15:41:46 32° ENE 15:44:47 10° N
Cosmos 405 3.4 15:38:48 10° N 15:42:12 42° ENE 15:45:36 10° SE
Orbus 7S? 4.2 15:34:38 10° SW 15:42:18 58° SSE 15:45:47 10° ENE
STARLINK-1048 3.8 15:39:29 10° WSW 15:42:46 45° SSE 15:46:04 10° E
STARLINK-77 4.0 15:38:57 10° WSW 15:42:52 52° S 15:46:48 10° E
Cosmos 44 Rocket 3.3 15:38:50 10° NW 15:43:35 87° SW 15:48:23 10° SE
Cosmos 1812 4.0 15:40:40 10° NNW 15:44:25 47° W 15:48:08 10° S
STARLINK-25 4.0 15:40:36 10° WSW 15:44:31 52° S 15:48:27 10° E
STARLINK-1049 3.7 15:41:34 10° WSW 15:44:52 46° S 15:48:09 10° E
Cosmos 2242 Rocket 3.6 15:40:47 10° N 15:45:21 74° ENE 15:49:55 10° SSE
STARLINK-71 4.0 15:42:25 10° WSW 15:46:21 54° S 15:50:14 10° E
NOSS 3-1 (A) 3.6 15:41:15 10° SSW 15:46:51 60° SE 15:53:28 10° NE
STARLINK-1051 3.7 15:43:43 10° WSW 15:47:02 46° SSE 15:50:13 11° E
STARLINK-79 4.0 15:43:54 10° WSW 15:47:50 53° S 15:51:38 11° E
Cosmos 1703 Rocket 3.7 15:43:35 10° N 15:47:59 53° ENE 15:52:22 10° SSE
STARLINK-1028 3.7 15:45:19 10° WSW 15:48:38 47° S 15:51:47 11° E
SJ 16-02 1.3 15:44:49 10° NNW 15:49:14 65° ENE 15:53:36 10° SE
STARLINK-78 4.0 15:45:34 10° WSW 15:49:30 53° S 15:53:14 11° E
ARGOS 3.9 15:45:31 10° ESE 15:50:20 34° ENE 15:55:10 10° N
STARLINK-1021 3.7 15:47:29 10° WSW 15:50:48 47° S 15:53:52 12° E
BREEZE-M DEB (TANK) 4.3 15:48:41 10° WSW 15:50:52 24° S 15:53:08 10° SE
STARLINK-57 3.9 15:47:16 10° WSW 15:51:13 54° S 15:54:55 11° E
STARLINK-49 3.9 15:48:51 10° WSW 15:52:47 54° S 15:56:25 12° E
STARLINK-1019 3.7 15:49:38 10° WSW 15:52:59 48° S 15:55:59 12° E
STARLINK-48 4.0 15:50:30 10° W 15:54:18 52° S 15:58:05 10° ESE
STARLINK-27 3.9 15:50:28 10° WSW 15:54:24 54° S 15:57:59 12° E
ATLAS 3B R/B 3.2 15:48:27 10° WNW 15:54:49 45° N 16:01:00 11° E
STARLINK-1012 3.7 15:51:51 10° WSW 15:55:11 48° S 15:58:06 13° E
STARLINK-1059 4.5 15:52:11 10° SW 15:56:00 36° SSE 15:59:22 13° E
STARLINK-74 3.9 15:52:08 10° WSW 15:56:04 55° S 15:59:35 13° E
Okean-O 4.1 15:51:53 10° S 15:56:05 42° W 16:00:20 10° NNW
SPOT 3 Rocket 4.5 15:53:02 10° ESE 15:57:27 29° NE 16:01:54 10° N
STARLINK-39 3.9 15:53:46 10° WSW 15:57:43 55° S 16:01:10 13° E
CSL-04 Rocket 3.8 15:52:48 10° SSE 15:58:19 85° WSW 16:03:48 10° NNW
Resurs 01 Rocket 3.3 15:56:16 11° E 15:58:29 16° NE 16:01:10 10° NNE
STARLINK-31 3.9 15:55:28 10° WSW 15:59:24 55° S 16:02:47 14° E
STARLINK-1026 3.6 15:56:13 10° WSW 15:59:34 49° S 16:02:20 14° E
STARLINK-61 3.8 15:56:26 10° WSW 16:00:16 57° S 16:03:37 13° ESE
Aureole 2 Rocket 2.5 15:57:50 10° SW 16:00:29 56° WNW 16:03:17 10° NNE
STARLINK-1023 3.5 15:57:35 10° WSW 16:00:47 48° S 16:03:21 15° E
STARLINK-1057 4.4 15:57:07 10° SW 16:00:58 38° SSE 16:04:09 14° E
Cosmos 1939 Rocket 3.1 15:57:03 10° SSE 16:01:12 81° WSW 16:05:22 10° NNW
STARLINK-69 3.9 15:57:16 10° WSW 16:01:13 56° S 16:04:33 14° E
STARLINK-1013 3.6 15:58:26 10° WSW 16:01:48 50° S 16:04:29 15° E
Cosmos 1869 Rocket 4.5 15:58:15 10° SE 16:01:54 26° E 16:05:33 10° NNE
Cosmos 858 Rocket 4.5 15:56:43 10° NNW 16:01:58 71° ENE 16:07:10 10° SE
STARLINK-26 3.8 15:59:16 10° W 16:02:37 47° S 16:05:37 12° ESE
STARLINK-21 3.9 15:58:46 10° WSW 16:02:43 56° S 16:05:59 14° E
USA 186 2.7 16:02:15 14° ESE 16:03:57 23° ENE 16:06:25 10° N
STARLINK-1009 3.6 16:00:38 10° WSW 16:04:00 50° S 16:06:37 15° E
STARLINK-45 3.9 16:00:37 10° WSW 16:04:33 57° S 16:07:46 15° E
STARLINK-1034 4.3 16:02:02 10° SW 16:05:53 39° SSE 16:08:55 15° E
STARLINK-70 3.9 16:02:09 10° WSW 16:06:07 57° S 16:09:16 15° E
CZ-2C R/B 3.7 16:00:53 10° SE 16:06:14 42° ENE 16:11:25 10° N
STARLINK-1015 3.6 16:02:52 10° WSW 16:06:15 50° S 16:08:47 16° E
STARLINK-76 3.9 16:03:42 10° WSW 16:07:39 56° S 16:10:45 16° E
STARLINK-23 3.9 16:05:21 10° WSW 16:09:19 57° S 16:12:20 16° E
CZ-2D R/B 3.6 16:05:36 10° S 16:09:28 69° WSW 16:13:22 10° NNW
STARLINK-1068 4.3 16:06:57 10° SW 16:10:51 41° SSE 16:13:42 17° E
STARLINK-80 4.4 16:07:15 10° W 16:10:52 41° SSW 16:14:12 12° SE
STARLINK-32 3.9 16:06:59 10° WSW 16:10:56 57° S 16:13:54 17° E
Cosmos 389 Rocket 4.1 16:08:21 10° NNE 16:10:59 18° ENE 16:11:59 17° E
NOSS 2-3 (C) 3.9 16:06:41 10° SSW 16:11:09 62° SE 16:16:39 10° NE
STARLINK-1014 3.6 16:07:51 10° WSW 16:11:17 50° S 16:13:40 18° ESE
CZ-4 R/B 2.7 16:08:26 10° S 16:12:27 45° W 16:16:25 10° NNW
STARLINK-40 3.8 16:08:39 10° WSW 16:12:36 57° S 16:15:30 17° E
Cosmos 2263 4.2 16:06:57 10° SSW 16:12:43 78° ESE 16:18:29 10° NE
CRYOSAT 2 4.4 16:09:06 10° S 16:14:01 89° W 16:18:58 10° N
STARLINK-44 3.8 16:10:18 10° WSW 16:14:15 57° S 16:17:06 18° ESE
Lacrosse 4 Rocket 3.1 16:10:23 10° W 16:14:16 31° NNW 16:18:14 10° NNE
Ariane Rocket 3.0 16:10:17 10° SSE 16:15:21 68° ENE 16:20:27 10° NNW
YAOGAN 1 3.4 16:11:14 10° S 16:15:29 54° W 16:19:46 10° NNW
Cosmos 1633 Rocket 4.0 16:11:33 10° SSW 16:15:48 52° WNW 16:20:06 10° N
Cosmos 990 Rocket 4.2 16:10:41 10° NNW 16:15:51 77° WSW 16:20:59 10° SSE
STARLINK-37 3.8 16:12:03 10° WSW 16:16:01 57° S 16:18:48 18° ESE
Okean 3 4.1 16:12:34 10° N 16:16:29 35° ENE 16:20:17 10° SE
STARLINK-36 3.8 16:13:34 10° WSW 16:17:32 57° S 16:20:15 19° ESE
USA 116 3.8 16:13:37 10° NNE 16:17:40 75° ESE 16:22:15 10° S
Nadezhda 4 Rocket 4.1 16:12:05 10° N 16:18:20 60° ENE 16:24:35 10° SSE
Cosmos 2297 Rocket 2.5 16:13:07 10° NNW 16:18:37 48° NE 16:23:09 15° ESE
STARLINK-64 3.6 16:15:37 10° W 16:19:10 54° S 16:21:27 20° ESE
STARLINK-68 3.8 16:15:25 10° WSW 16:19:22 58° S 16:22:02 20° ESE
STARLINK-1060 4.2 16:16:49 10° SW 16:20:46 44° SSE 16:23:16 20° E
STARLINK-63 3.8 16:16:58 10° WSW 16:20:56 58° S 16:23:32 20° ESE
Cosmos 1943 Rocket 2.6 16:15:33 10° SW 16:21:05 65° NW 16:26:36 10° NNE
SJ-6B 3.3 16:18:06 12° SE 16:21:21 38° ENE 16:24:56 10° N
STARLINK-33 3.5 16:18:14 10° W 16:21:25 49° S 16:23:20 21° ESE
SKYMED 2 4.1 16:18:06 10° N 16:22:26 62° WNW 16:26:43 10° SSW
STARLINK-35 3.8 16:18:32 10° WSW 16:22:29 58° S 16:25:02 21° ESE
STARLINK-55 3.6 16:19:37 10° W 16:22:48 48° S 16:24:40 21° ESE
STARLINK-66 3.6 16:20:30 10° W 16:23:40 48° S 16:25:31 22° ESE
STARLINK-51 3.8 16:20:11 10° WSW 16:24:08 58° S 16:26:37 21° ESE
STARLINK-28 3.6 16:21:12 10° W 16:24:22 47° S 16:26:12 21° ESE
STARLINK-42 3.5 16:22:15 10° W 16:25:23 48° S 16:27:06 23° ESE
STARLINK-1030 4.1 16:21:47 10° SW 16:25:45 45° SSE 16:28:04 22° E
STARLINK-30 3.8 16:21:50 10° WSW 16:25:48 58° S 16:28:13 22° ESE
ADEOS Rocket 3.6 16:18:27 10° NNE 16:26:16 70° ESE 16:33:55 10° S
Cosmos 1933 Rocket 3.5 16:22:14 10° S 16:26:39 88° WNW 16:31:03 10° NNE
SJ-11-01 4.2 16:22:44 10° SSE 16:27:24 79° ENE 16:32:06 10° NNW
STARLINK-72 3.8 16:23:30 10° WSW 16:27:28 58° S 16:29:49 23° ESE
STARLINK-1007 3.5 16:24:44 10° WSW 16:28:01 52° S 16:29:40 25° ESE
FREGAT/IRIS 2.5 16:26:19 19° SE 16:28:03 49° ENE 16:30:43 10° N
USA 238 DEB 3.8 16:20:56 10° NW 16:28:03 81° NE 16:34:24 15° ESE
STARLINK-1029 3.4 16:24:59 10° WSW 16:28:04 49° S 16:29:29 26° ESE
USA 238 3.8 16:21:02 10° NW 16:28:09 81° NE 16:34:27 15° ESE
IRS-1A Rocket 4.2 16:22:56 10° SSE 16:28:26 81° ENE 16:34:00 10° NNW
STARLINK-50 3.8 16:25:09 10° WSW 16:29:07 58° S 16:31:24 23° ESE
SL-08 RB Rocket 4.1 16:26:20 14° SE 16:29:55 40° ENE 16:34:08 10° N
Cosmos 1464 Rocket 4.0 16:23:41 10° S 16:29:58 65° E 16:36:18 10° NNE
Cosmos 2278 Rocket 4.2 16:26:03 10° WNW 16:30:26 22° NNW 16:34:48 10° NNE
Cosmos 1937 Rocket 3.6 16:25:13 10° NNW 16:30:30 78° WSW 16:35:43 10° SSE
STARLINK-1020 4.1 16:26:43 10° WSW 16:30:41 46° SSE 16:32:50 24° ESE
STARLINK-59 3.8 16:26:53 10° W 16:30:51 58° S 16:33:05 24° ESE
STARLINK-56 3.8 16:28:27 10° WSW 16:32:25 58° S 16:34:35 25° ESE
STARLINK-73 3.8 16:30:06 10° W 16:34:04 58° S 16:36:10 25° ESE
STARLINK-1052 4.0 16:31:40 10° WSW 16:35:39 48° SSE 16:37:37 26° ESE
STARLINK-38 3.8 16:31:47 10° W 16:35:44 58° S 16:37:47 26° ESE
Cosmos 1340 3.6 16:32:12 10° SSW 16:35:53 51° WNW 16:39:36 10° N
Cosmos 1346 Rocket 3.2 16:32:11 10° SSW 16:36:08 64° WNW 16:40:04 10° N
Meteor 2-11 Rocket 4.4 16:30:49 10° S 16:36:50 68° E 16:42:53 10° NNE
STARLINK-65 3.8 16:33:24 10° W 16:37:22 58° S 16:39:22 27° ESE
STARLINK-1010 3.4 16:34:23 10° WSW 16:37:36 51° S 16:38:48 31° ESE
NOSS 3-1 (C) 3.8 16:31:47 10° WSW 16:37:40 70° NNW 16:44:40 10° NE
DMSP B5D1-3 4.4 16:32:33 10° NNE 16:37:44 81° ESE 16:42:54 10° SSW
Cosmos 2227 Rocket 2.4 16:32:14 10° NNW 16:37:49 55° NE 16:41:35 21° ESE
STARLINK-1047 4.0 16:33:50 10° WSW 16:37:52 49° SSE 16:39:47 27° ESE
Cosmos 1515 3.6 16:34:35 10° N 16:38:23 66° ENE 16:42:09 10° SSE
STARLINK-53 3.8 16:35:09 10° W 16:39:06 58° S 16:41:02 28° ESE
Genesis I 3.5 16:35:32 10° NW 16:39:24 66° SW 16:42:09 18° SSE
Meteor 1-20 Rocket 4.1 16:35:37 10° S 16:41:08 85° ESE 16:46:48 10° NNE
Cosmos 2082 4.2 16:38:15 10° NNW 16:43:45 44° NE 16:46:43 25° E
STARLINK-1033 4.0 16:41:33 10° WSW 16:45:34 50° SSE 16:47:10 31° ESE
Cosmos 1656 Rocket 3.6 16:40:04 10° SSW 16:45:39 89° ESE 16:51:21 10° NE
Cosmos 2221 Rocket 3.5 16:41:36 10° N 16:46:08 69° ENE 16:50:36 10° SSE
MONITOR-E 3.7 16:44:55 25° SSE 16:46:20 89° ESE 16:49:03 10° NNW
SL-24 DEB 4.2 16:43:35 10° SSE 16:48:11 62° E 16:52:47 10° N
Cosmos 1674 Rocket 4.1 16:45:25 10° N 16:49:37 38° ENE 16:50:53 31° ESE
H-2A R/B 2.1 16:46:39 10° SSE 16:52:06 89° E 16:57:37 10° NNW
Cosmos 2034 Rocket 3.9 16:46:21 10° S 16:52:26 67° E 16:58:34 10° NNE
Cosmos 372 Rocket 3.9 16:50:01 10° NNW 16:55:19 81° ENE 16:59:09 19° SSE
STARLINK-1024 3.9 16:51:28 10° WSW 16:55:31 53° S 16:56:46 37° ESE
STARLINK-1046 4.5 16:53:47 10° SW 16:57:28 32° SSE 16:57:53 31° SE
OPS 8737 4.1 16:57:45 10° SW 17:01:19 72° SE 17:01:43 61° E
STARLINK 1040 3.3 16:58:54 10° W 17:01:30 42° SSW 17:01:30 42° SSW
STARLINK-1039 4.4 16:58:43 10° SW 17:02:26 33° SSE 17:02:41 33° SSE
STARLINK-22 3.6 17:00:00 10° W 17:03:10 44° SSW 17:03:35 42° SSE
Cosmos 220 Rocket 3.8 16:59:15 10° SSW 17:03:31 66° ESE 17:07:45 10° NNE
STARLINK-41 3.6 17:01:29 10° W 17:04:39 43° SSW 17:05:00 41° S
STARLINK-1016 3.4 17:01:57 10° W 17:05:16 51° S 17:05:37 48° SSE
STARLINK-1032 3.8 17:01:23 10° WSW 17:05:27 55° S 17:06:20 44° SE
Cosmos 2219 3.3 17:00:15 10° NW 17:06:02 81° WSW 17:10:16 19° SSE
Cosmos 1092 Rocket 3.9 16:59:46 10° N 17:06:11 80° ENE 17:12:33 10° SSE
STARLINK-1008 3.4 17:03:34 10° W 17:06:54 51° S 17:07:12 49° SSE
STARLINK-1045 4.4 17:03:37 10° SW 17:07:23 34° SSE 17:07:28 34° SSE
STARLINK-24 3.8 17:03:50 10° W 17:07:46 55° S 17:08:39 44° SE
Resurs 1-3 3.6 17:07:13 37° SE 17:08:47 61° ENE 17:13:09 10° N
STARLINK-75 3.8 17:05:37 10° W 17:08:48 41° SSW 17:09:07 39° S
MetOp-A 4.1 17:05:28 21° SSE 17:09:02 69° ENE 17:14:24 10° NNW
STARLINK-58 3.7 17:05:51 10° W 17:09:17 47° SSW 17:09:42 44° SSE
Cosmos 468 Rocket 4.0 17:04:31 10° SSW 17:09:51 87° ESE 17:15:13 10° NNE
STARLINK-1011 3.8 17:06:20 10° WSW 17:10:24 56° S 17:11:06 48° SE
Lacrosse 5 rocket 1.8 17:06:26 10° WNW 17:10:56 62° SSW 17:12:32 38° SE
STARLINK-62 3.7 17:07:33 10° W 17:10:59 46° SSW 17:11:20 44° S
STARLINK-1025 3.4 17:07:43 10° W 17:11:02 50° S 17:11:11 50° S
USA 234 3.2 17:08:00 29° E 17:11:39 84° N 17:18:13 10° W
STARLINK-1035 3.8 17:07:30 10° WSW 17:11:42 58° S 17:12:29 48° SE
STARLINK-1050 4.3 17:08:33 10° SW 17:12:19 36° SSE 17:12:19 36° SSE
STARLINK-1031 3.7 17:08:24 10° WSW 17:12:27 57° S 17:13:04 50° SE
NOSS 2-3 (E) 4.2 17:07:50 10° WSW 17:12:29 69° NNW 17:16:46 18° NE
STARLINK-34 3.7 17:09:10 10° W 17:12:36 46° SSW 17:12:53 44° S
Meteor 2-4 Rocket 4.0 17:06:56 10° NNW 17:12:51 76° W 17:18:47 10° S
STARLINK-1017 3.5 17:09:47 10° W 17:13:07 50° S 17:13:12 50° S
ERS-1 Rocket 4.3 17:14:07 23° NE 17:14:07 23° NE 17:17:57 10° N
STARLINK-1036 3.7 17:11:18 10° WSW 17:15:22 56° S 17:15:53 52° SE
Cosmos 192 4.3 17:10:33 10° SSW 17:15:28 85° WNW 17:20:26 10° NNE
Lacrosse 5 2.3 17:11:28 10° SSW 17:16:10 39° SE 17:16:23 39° SE
Cosmos 1634 Rocket 4.1 17:10:15 10° SSE 17:16:18 50° E 17:22:23 10° NNE
Cosmos 2263 Rocket 3.3 17:11:37 10° NNW 17:16:31 29° NNE 17:18:03 25° ENE
CZ-2C R/B 3.7 17:12:15 10° NNE 17:15:35 27° ENE 17:15:35 27° ENE
STARLINK-1055 4.3 17:13:28 10° SW 17:17:05 37° SSE 17:17:05 37° SSE
Meteor 1-14 Rocket 4.3 17:12:19 10° SSW 17:17:51 78° WNW 17:23:30 10° NNE
NOSS 3-2 (A) 4.1 17:10:58 10° NW 17:18:09 74° SW 17:23:30 24° SE
Cosmos 2195 Rocket 4.4 17:12:01 10° N 17:18:12 83° E 17:23:47 13° SSE
STARLINK-81 3.8 17:14:31 10° W 17:18:27 54° S 17:18:55 50° SSE
Gbstr 26 Del rocket 3.7 17:15:16 10° SW 17:19:17 40° SSE 17:19:34 40° SSE
Meteor 2-13 Rocket 4.5 17:13:24 10° N 17:19:24 55° ENE 17:21:39 36° SE
STARLINK-1048 3.6 17:16:06 10° W 17:19:17 48° SSW 17:19:17 48° SSW
STARLINK-54 3.8 17:16:21 10° W 17:20:16 52° S 17:20:41 50° SSE
STARLINK-1044 3.7 17:16:16 10° WSW 17:20:20 57° S 17:20:40 55° SSE
STARLINK-1049 3.7 17:18:13 10° W 17:21:20 48° SSW 17:21:20 48° SSW
STARLINK-77 3.8 17:17:49 10° W 17:21:45 53° S 17:22:06 51° S
NOSS 3-2 (C) 3.9 17:14:49 10° NW 17:22:01 87° SW 17:26:22 31° SE
STARLINK-1022 4.3 17:18:23 10° SW 17:21:51 38° S 17:21:51 38° S
STARLINK-1027 3.7 17:18:07 10° WSW 17:22:18 59° S 17:22:43 56° SSE
Cosmos 2369 Rocket 3.5 17:17:24 10° WSW 17:22:43 39° NW 17:28:06 10° NNE
STARLINK-25 3.8 17:19:28 10° W 17:23:24 53° S 17:23:41 51° S
Cosmos 1814 Rocket 4.0 17:18:38 10° S 17:23:37 55° ESE 17:28:40 10° NE
STARLINK-1051 3.7 17:20:23 10° W 17:23:25 46° SSW 17:23:25 46° SSW
GP-B 3.1 17:24:09 57° E 17:24:24 58° E 17:28:48 10° N
STARLINK-71 3.9 17:21:19 10° W 17:25:13 51° SSW 17:25:28 50° S
STARLINK-1028 3.8 17:22:01 10° W 17:25:00 46° SSW 17:25:00 46° SSW
STARLINK-79 3.8 17:22:47 10° W 17:26:43 52° S 17:26:53 51° S
STARLINK-1042 4.4 17:23:20 10° SW 17:26:40 38° S 17:26:40 38° S
SJ 16-02 3.8 17:24:04 10° NW 17:27:25 21° W 17:30:44 10° SSW
STARLINK-1021 3.9 17:24:11 10° W 17:27:06 44° SW 17:27:06 44° SW
NOSS 2-3 (D) 4.3 17:23:03 10° WSW 17:27:42 62° NNW 17:31:20 22° NE
Cosmos 2298 Rocket 4.4 17:22:50 10° NNW 17:28:08 65° WSW 17:31:28 23° S
STARLINK-78 3.9 17:24:27 10° W 17:28:22 51° S 17:28:29 51° S
Meteor 1-4 Rocket 3.5 17:25:01 10° N 17:27:35 37° NNE 17:27:35 37° NNE
STARLINK-1019 4.0 17:26:23 10° W 17:29:13 43° SW 17:29:13 43° SW
Cosmos 841 Rocket 3.3 17:24:42 10° SSW 17:29:48 66° ESE 17:34:58 10° NNE
STARLINK-57 3.9 17:26:11 10° W 17:30:06 50° SSW 17:30:09 50° S
STARLINK-1037 3.7 17:26:06 10° WSW 17:30:09 58° S 17:30:09 58° S
Cosmos 1763 Rocket 3.5 17:25:04 10° SSW 17:30:20 81° WNW 17:35:42 10° NNE
ARGOS 3.7 17:25:03 10° S 17:30:24 57° W 17:35:47 10° NNW
USA 229 DEB 4.3 17:24:24 10° W 17:31:01 54° NNW 17:36:13 19° NE
USA 229 4.3 17:24:31 10° W 17:31:08 54° NNW 17:36:18 19° NE
CENTAUR R/B 3.1 17:23:35 10° NW 17:31:17 90° NE 17:35:27 35° SE
STARLINK-49 3.9 17:27:44 10° W 17:31:39 51° SSW 17:31:39 51° SSW
STARLINK-1012 4.0 17:28:35 10° W 17:31:21 41° SW 17:31:21 41° SW
STARLINK-1056 4.4 17:28:16 10° SW 17:31:27 38° S 17:31:27 38° S
STARLINK-27 4.0 17:29:23 10° W 17:33:13 50° SSW 17:33:13 50° SSW
Resurs 01 Rocket 1.5 17:33:49 67° SE 17:34:19 76° ENE 17:38:46 10° NNW
Cosmos 1900 4.4 17:30:03 10° NW 17:34:54 56° NE 17:35:26 53° ENE
STARLINK-74 4.0 17:31:03 10° W 17:34:50 50° SSW 17:34:50 50° SSW
USA 186 3.7 17:34:04 20° SW 17:34:58 24° W 17:37:28 10° NW
Meteor 1-11 Rocket 3.6 17:31:35 22° S 17:35:06 59° E 17:40:33 10° NNE
STARLINK-1059 3.8 17:31:09 10° WSW 17:35:01 57° SSW 17:35:01 57° SSW
STARLINK-1026 4.2 17:33:00 10° W 17:35:36 38° SW 17:35:36 38° SW
Cosmos 2208 Rocket 3.9 17:31:07 10° SSW 17:36:31 78° ESE 17:41:51 10° NNE
SPOT 3 Rocket 3.9 17:32:31 17° S 17:36:31 66° WSW 17:41:45 10° NNW
STARLINK-39 4.0 17:32:41 10° W 17:36:24 49° SSW 17:36:24 49° SSW
STARLINK-1023 4.4 17:33:49 10° W 17:36:07 34° SW 17:36:07 34° SW
ARGOS Delta rocket 4.3 17:33:35 16° S 17:37:01 56° W 17:41:31 10° NNW
NOSS 3-1 (A) 4.0 17:31:57 10° WSW 17:37:53 58° NNW 17:43:01 19° NE
STARLINK-31 4.1 17:34:23 10° W 17:38:02 48° SSW 17:38:02 48° SSW
STARLINK-1013 4.3 17:35:14 10° W 17:37:46 37° SW 17:37:46 37° SW
STARLINK-61 4.4 17:35:04 10° W 17:38:30 38° SSW 17:38:30 38° SSW
STARLINK-69 4.2 17:36:13 10° W 17:39:48 46° SSW 17:39:48 46° SSW
STARLINK-1057 3.9 17:36:07 10° WSW 17:39:48 55° SSW 17:39:48 55° SSW
STARLINK-1009 4.4 17:37:27 10° W 17:39:54 36° SW 17:39:54 36° SW
STARLINK-21 4.2 17:37:42 10° W 17:41:14 46° SSW 17:41:14 46° SSW
STARLINK-45 4.3 17:39:33 10° W 17:43:01 44° SW 17:43:01 44° SW
Cosmos 1975 Rocket 4.4 17:39:47 10° N 17:42:14 27° NNE 17:42:14 27° NNE
STARLINK-70 4.3 17:41:07 10° W 17:44:31 44° SW 17:44:31 44° SW
STARLINK-1034 4.1 17:41:05 10° WSW 17:44:34 52° SW 17:44:34 52° SW
Cosmos 389 Rocket 3.1 17:42:27 10° NNW 17:45:53 56° W 17:45:53 56° W
CZ-2C R/B 4.2 17:40:30 10° S 17:46:04 48° W 17:51:28 10° NNW
ATLAS 3B R/B 2.6 17:39:35 10° NW 17:46:18 78° NE 17:48:15 50° ESE
STARLINK-76 4.3 17:42:39 10° W 17:45:59 43° SW 17:45:59 43° SW
Cosmos 1733 Rocket 3.5 17:48:06 49° NNE 17:48:06 49° NNE 17:51:20 10° NNE
STARLINK-23 4.4 17:44:18 10° W 17:47:34 42° SW 17:47:34 42° SW
STARLINK-32 4.4 17:45:56 10° W 17:49:08 41° SW 17:49:08 41° SW
STARLINK-1068 4.2 17:46:03 10° W 17:49:21 49° SW 17:49:21 49° SW
Cosmos 1125 Rocket 3.6 17:45:03 10° NNW 17:50:23 75° WSW 17:51:43 51° S
Cosmos 1570 Rocket 4.1 17:45:42 10° SSW 17:50:58 76° WNW 17:56:18 10° NNE
Lacrosse 4 Rocket 3.8 17:51:13 10° NW 17:54:14 18° N 17:56:00 15° NNE
Cosmos 1378 Rocket 3.6 17:50:38 10° NNW 17:54:41 75° NW 17:54:41 75° NW
Cosmos 540 Rocket 3.3 17:51:29 10° SSW 17:56:39 89° ESE 18:01:51 10° NNE
Cosmos 1066 Rocket 4.2 17:52:43 10° NNW 17:58:33 87° WSW 18:00:02 53° S
Cosmos 2297 Rocket 3.0 17:57:20 10° NW 18:02:45 47° WSW 18:04:59 31° SSW
SPOT 5 4.0 18:06:06 35° NNE 18:06:06 35° NNE 18:09:36 10° N
Cosmos 1943 Rocket 4.2 18:01:24 10° W 18:05:52 24° NNW 18:10:20 10° NNE
CZ-2C R/B 4.0 18:01:55 10° NNE 18:06:33 67° WNW 18:11:13 10° SSW
DMSP B5D2-2 4.1 18:02:37 10° NNE 18:07:11 66° NE 18:07:11 66° NE
APEX 4.3 18:02:42 10° SW 18:08:10 87° WNW 18:14:55 10° NE
Spot 2 Rocket 3.4 18:11:11 81° N 18:11:11 81° N 18:16:04 10° NNW
SPOT 1/Viking Rocket 3.9 18:14:41 53° NNE 18:14:41 53° NNE 18:18:52 10° NNW
Cosmos 2266 Rocket 3.9 18:08:05 10° N 18:14:25 68° ENE 18:14:30 68° E
Cosmos 2278 Rocket 4.3 18:12:50 10° NW 18:16:39 18° N 18:18:52 15° NNE
Terra 3.3 18:18:37 26° NNE 18:18:37 26° NNE 18:21:07 10° N
Cosmos 2227 Rocket 3.3 18:16:33 10° NW 18:21:46 39° WSW 18:23:25 32° SSW
MetOp-B 4.2 18:23:53 71° WSW 18:24:01 71° WSW 18:29:24 10° NNW
Cosmos 2082 4.2 18:22:29 10° NW 18:28:02 53° WSW 18:28:37 51° SW
NOSS 3-1 (C) 4.4 18:23:25 10° WNW 18:29:30 46° N 18:32:11 33° NE
Cosmos 1655 Rocket 4.2 18:35:14 10° NNW 18:41:36 67° W 18:42:26 60° SW
Lacrosse 5 rocket 3.9 18:46:07 10° W 18:48:11 18° WSW 18:48:11 18° WSW
ERS-1 Rocket 4.0 18:54:06 42° NNW 18:54:06 42° NNW 18:57:26 10° NNW
USA 234 3.3 18:55:21 65° SW 18:55:21 65° SW 19:01:25 10° WNW
Cosmos 2279 Rocket 4.3 18:55:38 60° WSW 18:56:13 63° WNW 19:02:24 10° N
Cosmos 1867 4.4 18:50:53 10° NW 18:54:55 47° NNW 18:54:55 47° NNW
Cosmos 1844 Rocket 4.0 18:52:14 10° NNW 18:56:18 31° NNE 18:56:18 31° NNE
CZ-2C R/B 3.3 18:52:22 10° N 18:57:07 53° NW 18:57:07 53° NW
Lacrosse 5 3.7 18:53:45 10° WSW 18:55:38 23° WSW 18:55:38 23° WSW
Cosmos 2263 Rocket 2.9 18:55:33 10° NW 18:59:45 51° NNW 18:59:45 51° NNW
Cosmos 2369 Rocket 4.5 19:04:15 10° WNW 19:08:22 20° NNW 19:12:20 10° NNE
Resurs 01 Rocket 4.0 19:11:23 18° W 19:11:23 18° W 19:14:27 10° NW
CENTAUR R/B 4.0 19:14:30 10° WNW 19:21:38 38° WSW 19:22:39 37° SW
USA 229 DEB 4.4 19:16:30 10° WNW 19:23:11 48° N 19:23:39 47° NNE
USA 229 4.4 19:16:37 10° WNW 19:23:17 48° N 19:23:45 47° NNE
NOSS 3-1 (A) 4.5 19:23:44 10° WNW 19:29:58 46° N 19:30:28 46° NNE
Lacrosse 4 Rocket 4.3 19:31:01 10° NNW 19:32:19 16° NNW 19:32:19 16° NNW
ATLAS 3B R/B 3.7 19:30:31 10° WNW 19:35:31 36° W 19:35:31 36° W
Terra 4.3 19:57:29 19° NW 19:57:29 19° NW 19:59:00 10° NNW
Cosmos 2278 Rocket 4.1 19:57:41 10° NNW 20:00:43 24° N 20:00:43 24° N
Cosmos 2369 Rocket 4.5 20:50:30 10° NNW 20:54:07 19° N 20:54:07 19° N
SL-16 R/B 4.4 21:17:24 25° NNE 21:17:24 25° NNE 21:20:47 10° N
ATLAS 2AS CENTAUR R/B 4.0 21:58:05 39° NE 21:58:05 39° NE 22:03:01 10° ENE
CZ-4C R/B 4.2 22:54:46 25° ENE 22:54:46 25° ENE 22:57:23 10° NE
SL-16 R/B 4.3 22:54:09 22° N 22:54:09 22° N 22:56:51 10° NNE
SL-16 R/B 4.2 23:02:29 25° NNW 23:02:29 25° NNW 23:04:56 10° NNW
Cosmos 2344 4.2 23:06:44 53° NNW 23:07:42 55° N 23:17:28 10° ENE
CZ-2D R/B 4.2 23:05:53 10° NNE 23:07:50 23° NNE 23:07:50 23° NNE
Resurs 1-4 Rocket 4.1 23:16:29 10° NNE 23:18:43 25° NNE 23:18:43 25° NNE
Cosmos 2322 Rocket 4.2 23:31:05 22° N 23:31:05 22° N 23:34:41 10° NNE
Cosmos 2219 Rocket 3.8 23:36:02 30° NNE 23:36:02 30° NNE 23:39:03 10° NNE
Cosmos 2333 Rocket 3.8 23:36:43 30° NNE 23:36:43 30° NNE 23:39:49 10° NNE
Cosmos 2237 Rocket 3.7 23:41:42 33° NNE 23:41:42 33° NNE 23:44:42 10° NE
ATLAS 2AS CENTAUR R/B 3.5 23:45:29 40° NNW 23:47:53 53° NNE 23:55:10 10° E
Cosmos 2360 Rocket 4.0 23:53:44 24° N 23:53:44 24° N 23:57:24 10° NNE
ARIANE 5 R/B 4.3 23:48:57 10° NNE 23:51:45 28° NE 23:51:45 28° NE
